www.pogodaiklimat.ru

Погода и климат >> Архив погоды >> Россия >> Оренбургская область >> Оренбург


АРХИВ ПОГОДЫ в Оренбурге

Время (UTC), дата Ветер
(напр.,м/с)
 
Видим.   Явления Облачность Т
(С)
Тd
(С)
f
(%)
Тe
(С)
Тes
(С)
Комфортность P
(гПа)
Po
(гПа)
Тmin
(С)
Tmax
(С)
R
(мм)
R24
(мм)
S
(см)
06 13.09 З 4 20 км 1/0
[Ci fib]
+21.2 +7.0 40 +22 +26 комфорт 1020.7 1006.9
09 13.09 З 6 20 км 3/1 1000 м
[Cu hum Ci fib]
+26.7 +9.6 34 +27 +30 жарко 1019.6 1006.1
12 13.09 З 5
{12}
20 км 3/1 1000 м
[Cu hum Ci fib]
+27.2 +9.9 34 +28 +29 жарко 1019.1 1005.6
15 13.09 ЮЗ 3 20 км 1/0
[Ci fib]
+22.2 +7.5 39 +23 +23 комфорт 1019.3 1005.6 +27.6
18 13.09 Ю 3 20 км ясно +16.9 +3.7 41 +17 +17 тепло 1020.0 1006.0
21 13.09 ЮЗ 1 20 км ясно +14.2 +2.4 45 +15 +15 тепло 1019.6 1005.5
00 14.09 Ю 1 20 км ясно +11.7 +3.0 55 +12 +12 тепло 1019.8 1005.6
03 14.09 В 2 20 км ясно +10.2 +3.6 64 +9 +9 по сезону 1019.9 1005.6 +9.3
06 14.09 Ю 4 20 км ясно +24.0 +3.4 26 +23 +28 комфорт 1018.7 1005.1
09 14.09 Ю 7-11
{11}
20 км ясно +28.2 0.0 16 +26 +28 жарко 1016.8 1003.3
12 14.09 ЮЗ 6-10
{13}
20 км 6/0
[Ci fib]
+29.1 -0.7 14 +26 +27 жарко 1015.2 1001.8
15 14.09 Ю 3
{11}
20 км 8/0
[Ci fib]
+24.3 -0.6 19 +23 +23 комфорт 1013.6 1000.1 +29.7
18 14.09 Ю 6 20 км ясно +20.4 +0.9 27 +20 +20 тепло 1013.9 1000.2
21 14.09 Ю 3 20 км ясно +19.0 -0.4 27 +19 +19 тепло 1014.4 1000.6
00 15.09 Ю 5 20 км ясно +16.1 +1.3 37 +15 +15 тепло 1013.7 999.8
03 15.09 Ю 2 20 км 3/0
[Ci fib]
+14.1 +0.3 39 +14 +14 тепло 1015.4 1001.4 +12.5
06 15.09 В 2 20 км 3/0
[Ci fib]
+21.3 +5.0 34 +22 +27 комфорт 1015.9 1002.2
09 15.09 СВ 3 20 км 6/0
[Ci fib]
+26.3 +10.0 36 +27 +33 жарко 1015.1 1001.7
12 15.09 СВ 1 20 км 9/0
[Ci sp]
+27.9 +5.8 25 +27 +30 жарко 1014.6 1001.2
15 15.09 штиль 0 20 км 8/0
[Ci sp]
+23.4 +7.2 35 +24 +24 комфорт 1014.7 1001.1 +28.2
18 15.09 З 1 20 км ясно +14.8 +4.1 49 +15 +15 тепло 1015.6 1001.6
21 15.09 штиль 0 20 км ясно +14.4 +3.2 47 +14 +14 тепло 1015.7 1001.7
00 16.09 штиль 0 20 км ясно +10.6 +3.8 63 +10 +10 тепло 1016.5 1002.3
03 16.09 В 1 20 км ясно +11.3 +4.1 61 +11 +12 по сезону 1017.5 1003.3 +10.0
06 16.09 З 1 20 км ясно +22.2 +7.6 39 +23 +30 комфорт 1017.3 1003.7
09 16.09 З 2 20 км ясно +28.8 +10.1 31 +29 +38 жарко 1016.7 1003.3
12 16.09 З 5 20 км ясно +27.8 +10.3 34 +28 +30 жарко 1016.5 1003.1
15 16.09 З 3 20 км 3/0
[Ci fib]
+22.5 +9.6 44 +24 +24 комфорт 1016.9 1003.3 +29.0
18 16.09 З 2 20 км 1/0
[Ci fib]
+16.2 +7.3 56 +16 +16 тепло 1018.0 1004.0
21 16.09 Ю 2 20 км ясно +14.7 +6.3 57 +15 +15 тепло 1018.2 1004.2
00 17.09 З 3 20 км 3/0
[Ci fib]
+11.7 +6.1 68 +10 +10 тепло 1019.0 1004.8
03 17.09 З 1 20 км 8/0
[Ac trans Ci fib]
+11.6 +7.3 75 +12 +12 по сезону 1020.4 1006.2 +10.8
06 17.09 СЗ 2 20 км 8/0
[Ci fib]
+20.8 +9.3 48 +23 +28 комфорт 1020.9 1007.1
09 17.09 С 3 20 км 6/0
[Ci fib]
+24.1 +7.2 34 +24 +31 комфорт 1020.5 1006.9
12 17.09 С 5 20 км 6/0
[Ci]
+24.4 +5.8 30 +24 +26 комфорт 1019.7 1006.1
15 17.09 СЗ 1 20 км 3/0
[Ac lent Ci fib]
+18.4 +5.0 41 +20 +20 тепло 1020.2 1006.3 +25.5
18 17.09 З 1 20 км ясно +14.3 +4.5 52 +15 +15 тепло 1021.1 1007.0
21 17.09 З 1 20 км ясно +11.7 +4.4 61 +12 +12 тепло 1021.5 1007.2
00 18.09 ЮЗ 1 20 км ясно +7.6 +3.2 74 +7 +7 по сезону 1022.6 1008.1
03 18.09 штиль 0 20 км 3/0
[Ci fib]
+8.3 +3.6 72 +8 +8 по сезону 1023.1 1008.6 +7.2
06 18.09 СЗ 2 20 км 6/0
[Ci fib]
+18.0 +6.3 46 +19 +24 тепло 1023.4 1009.4
09 18.09 С 3 20 км 6/0
[Ci fib]
+21.8 +6.8 38 +23 +29 комфорт 1022.4 1008.6
12 18.09 С 3 20 км 6/0
[Ci fib]
+23.1 +5.8 33 +24 +26 комфорт 1021.3 1007.6
15 18.09 ЮВ 1 20 км 8/0
[Ci fib]
+20.1 +5.5 38 +22 +22 комфорт 1021.4 1007.6 +23.4
18 18.09 В 1 20 км ясно +15.0 +2.4 43 +16 +16 тепло 1022.1 1008.0
21 18.09 В 1 20 км 3/0
[Ci fib]
+12.5 +4.5 58 +13 +13 тепло 1022.3 1008.1
00 19.09 В 2 20 км 3/0
[Ci fib]
+10.5 +4.1 65 +9 +9 по сезону 1022.7 1008.4
03 19.09 В 1 20 км 9/0
[Ci fib]
+10.1 +3.9 65 +10 +10 по сезону 1023.4 1009.0 +9.5
06 19.09 Ю 4 20 км 9/0
[Ci fib]
+23.6 +7.1 35 +24 +27 комфорт 1023.1 1009.4
09 19.09 Ю 4 20 км 9/0
[Ci fib]
+29.0 +7.0 25 +28 +33 жарко 1021.7 1008.3
12 19.09 ЮЗ 4 20 км 6/0
[Ci fib]
+30.2 +6.3 22 +29 +30 жарко 1020.5 1007.1
15 19.09 Ю 3 20 км 8/0
[Ci fib]
+24.3 +6.3 31 +24 +24 комфорт 1020.6 1007.0 +30.3
18 19.09 Ю 3 20 км ясно +19.1 +5.3 40 +20 +20 тепло 1021.1 1007.2
21 19.09 Ю 3 20 км ясно +18.1 +4.7 41 +18 +18 тепло 1020.6 1006.7
00 20.09 Ю 4 20 км ясно +17.9 +3.8 39 +18 +18 тепло 1020.6 1006.6
03 20.09 З 2 20 км 3/0
[Ci fib]
+17.7 +3.5 39 +18 +18 тепло 1020.8 1006.9 +14.6

 

Местоположение метеостанции Оренбург (Оренбургская область, Россия): широта 51.68 долгота 55.10 высота над уровнем моря 117 м.

В архиве по умолчанию представлена погода в Оренбурге за последнюю неделю. Архивные данные за месяц целиком и за предыдущие месяцы, начиная с января 2011 года, Вы можете получить, выбрав интересующий диапазон дат из раскрывающегося списка и нажав кнопку "Ввод!".

Внимание! Время в таблицах - всемирное. Для получения местного времени необходимо прибавить поправку, которая в Оренбурге равна 5 ч.

Смотрите также архив погоды в соседних городах и на ближайших метеорологических станциях:

Погода в Соль-Илецк (Оренбургская область, Россия) (59 км)
Погода в Акбулаке (Оренбургская область, Россия) (82 км)
Погода в Беляевке (Оренбургская область, Россия) (96 км)
Погода в Чингирлау (Западно-Казахстанская область, Казахстан) (96 км)
Погода в Новосергиевке (Оренбургская область, Россия) (110 км)
Погода в Троицком Т (Оренбургская область, Россия) (113 км)
Погода в Илеке (Оренбургская область, Россия) (121 км)
Погода в Кумертау (Башкирия, Россия) (129 км)
Погода в Шарлыке (Оренбургская область, Россия) (141 км)
Погода в Мартуке (Актюбинская область, Казахстан) (144 км)

Пояснения к столбцам:

Ветер - указаны скорость ветра в м/с - средняя за 10 мин, порывы в срок и между сроками (в фигурных скобках) и направление, откуда дует ветер: С - северный, СВ - северо-восточный, В - восточный, ЮВ - юго-восточный, Ю - южный, ЮЗ - юго-западный, З - западный, СЗ - северо-западный.
Видимость - горизонтальная дальность видимости в метрах или километрах. При видимости от 1 до 10 км при отсутствии осадков обычно наблюдается дымка, при ухудшении видимости до 1 км и менее - туман. В сухую погоду видимость может ухудшаться дымом, пылью или мглою.
Явления - указаны атмосферные явления, наблюдавшиеся в срок или в последний час перед сроком; фигурными скобками обозначены явления, наблюдавшиеся между сроками (за 1-3 часа до срока); квадратными скобками обозначены град или гололедные отложения с указанием их диаметра в мм.
Облачность - указаны через наклонную черту общая и нижняя облачность в баллах и высота нижней границы облаков в метрах; квадратными скобками обозначены формы облаков: Ci - перистые, Cs - перисто-слоистые, Cc - перисто-кучевые, Ac - высококучевые, As - высокослоистые, Sc - слоисто-кучевые, Ns - слоисто-дождевые, Cu - кучевые, Cb - кучево-дождевые. Подробнее классификацию облаков см. в Атласе облаков (PDF).
T - Температура воздуха - температура, измеренная на высоте 2 м над землей.
Td - Температура точки росы - температура, при понижении до которой содержащийся в воздухе водяной пар достигнет насыщения.
f - Относительная влажность воздуха - влажноcть воздуха, измеренная на высоте 2 м над землей.
Te - Эффективная температура - температура, которую ощущает одетый по сезону человек в тени. Характеристика душности погоды. При расчете учитывается влияние влажности воздуха и скорости ветра на теплоощущения человека.
Tes - Эффективная температура на солнце - температура, которую ощущает человек, с поправкой на солнечный нагрев. Характеристика знойности погоды. Зависит от высоты солнца над горизонтом, облачности и скорости ветра. Ночью, в пасмурную погоду, а также при ветре 12 м/с и более поправка равна нулю.
P - Атмосферное давление - приведенное к уровню моря атмосферное давление.
Po - Атмосферное давление - измеренное на уровне метеостанции атмосферное давление.
Tmin - Минимальная температура - минимум температуры воздуха на высоте 2 м над землей.
Tmax - Максимальная температура - максимум температуры воздуха на высоте 2 м над землей.
R - Количество осадков - Количество выпавших осадков за период времени, мм. При наведении курсора мыши на число - период времени, за который выпало указанное количество осадков.
R24 - Количество осадков - Количество выпавших осадков за 24 часа, мм.
S - Снежный покров - Высота снежного покрова, см. При наведении курсора мыши на число - состояние снежного покрова и степень покрытия местности в баллах.